EW8782 Weather Reports


time (UTC)temp
C
wind
direction
speed
KPH
gust
KPH
rain 1hr
cm
rain 24hr
cm
rain mn
cm
humidity
%
barometer
mb
20260506044905 9 0 8.0 14.5 0.23 0.99 1.04 95 1005.8
20260506043903 9 0 4.8 14.5 0.23 0.99 0.99 95 1005.8
20260506042904 9 344 6.4 11.3 0.23 0.99 0.97 95 1005.8
20260506041904 9 343 6.4 9.7 0.20 0.99 0.91 95 1005.9
20260506040907 9 344 4.8 14.5 0.20 0.99 0.89 95 1005.9
20260506035903 8 340 6.4 14.5 0.20 0.79 0.86 95 1005.9
20260506035345 8 303 4.8 11.3 0.18 0.79 0.81 95 1006.0
20260506033903 8 345 6.4 14.5 0.18 0.79 0.79 95 1006.0
20260506032903 8 313 4.8 11.3 0.18 0.79 0.74 95 1006.1
20260506031904 8 327 3.2 16.1 0.20 0.79 0.71 95 1006.1
20260506030903 9 317 4.8 17.7 0.23 0.79 0.69 95 1006.2
20260506025904 9 348 6.4 14.5 0.20 0.58 0.66 95 1006.2
20260506024902 9 0 6.4 16.1 0.23 0.58 0.64 95 1006.4
20260506023903 9 354 6.4 11.3 0.23 0.58 0.61 95 1006.4
20260506022903 9 314 4.8 16.1 0.20 0.58 0.53 95 1006.4
20260506021905 9 303 6.4 17.7 0.15 0.58 0.51 95 1006.5
20260506020905 9 351 8.0 14.5 0.15 0.58 0.48 95 1006.5
20260506015904 9 348 3.2 14.5 0.15 0.43 0.46 95 1006.5
20260506014904 9 14 8.0 19.3 0.13 0.43 0.43 95 1006.6
20260506013902 9 333 9.7 14.5 0.10 0.43 0.38 95 1006.6
20260506012903 9 0 8.0 19.3 0.10 0.43 0.36 95 1006.6
20260506012347 9 0 6.4 17.7 0.13 0.43 0.33 95 1006.7
20260506010904 9 353 9.7 16.1 0.13 0.43 0.33 95 1006.8
20260506010342 9 0 8.0 16.1 0.13 0.33 0.33 95 1006.8
20260506004904 9 0 9.7 16.1 0.13 0.33 0.30 95 1006.8
20260506003903 9 0 6.4 14.5 0.13 0.33 0.28 95 1007.0
20260506002905 9 4 8.0 16.1 0.13 0.33 0.23 95 1007.0
20260506001903 9 302 6.4 16.1 0.13 0.33 0.23 95 1007.2
20260506000903 10 0 11.3 20.9 0.13 0.33 0.23 95 1007.2
20260505235905 10 0 6.4 17.7 0.13 0.20 0.20 95 1007.3
20260505234905 10 7 6.4 16.1 0.10 0.20 0.18 95 1007.3
20260505233903 10 321 8.0 16.1 0.10 0.20 0.15 95 1007.4
20260505232904 10 331 6.4 17.7 0.08 0.20 0.15 94 1007.4
20260505231906 10 343 8.0 14.5 0.08 0.20 0.13 95 1007.5
20260505230908 10 0 6.4 20.9 0.08 0.20 0.10 95 1007.5
20260505225904 10 358 11.3 16.1 0.08 0.13 0.08 95 1007.5
20260505224904 10 323 8.0 17.7 0.10 0.13 0.08 95 1007.7
20260505223904 10 319 8.0 14.5 0.08 0.13 0.05 94 1007.7
20260505222903 10 0 11.3 19.3 0.10 0.13 0.05 94 1007.7
20260505221905 10 351 8.0 17.7 0.08 0.13 0.05 94 1007.8
20260505220903 10 0 9.7 17.7 0.08 0.13 0.03 94 1007.8
20260505215903 10 0 11.3 27.4 0.05 0.05 0.13 94 1007.7
20260505214904 10 20 6.4 17.7 0.05 0.05 0.10 94 1007.8
20260505213903 10 0 11.3 22.5 0.05 0.05 0.08 94 1007.9
20260505212902 10 0 9.7 16.1 0.05 0.05 0.08 94 1007.9
20260505212337 10 27 8.0 19.3 0.05 0.05 0.08 94 1007.9
20260505210902 10 353 8.0 16.1 0.05 0.05 0.05 94 1008.0
20260505205903 10 34 9.7 24.1 0.05 0.03 0.05 94 1008.1
20260505204902 10 355 8.0 19.3 0.03 0.03 0.05 94 1008.2
20260505203901 10 14 11.3 19.3 0.03 0.03 0.05 94 1008.1
20260505202902 11 16 9.7 19.3 0.05 0.03 0.05 94 1008.1
20260505201901 11 0 12.9 20.9 0.05 0.03 0.05 94 1008.1
20260505200902 10 28 11.3 22.5 0.03 0.03 0.03 93 1008.0
20260505200336 10 31 11.3 22.5 0.03 0.00 0.03 93 1008.0
20260505195339 10 34 11.3 19.3 0.03 0.00 0.03 93 1008.0
20260505193900 10 25 12.9 24.1 0.03 0.03 0.00 93 1007.9
20260505192901 10 17 12.9 24.1 0.00 0.03 0.00 93 1008.0
20260505192336 11 10 12.9 29.0 0.00 0.03 0.00 92 1007.9
20260505191336 11 0 14.5 20.9 0.00 0.03 0.00 92 1007.9
20260505185859 11 10 9.7 24.1 0.00 0.03 0.00 92 1007.9
20260505184859 11 18 8.0 16.1 0.00 0.03 0.00 92 1007.8
20260505183859 11 20 9.7 19.3 0.00 0.03 0.00 91 1007.8
20260505182900 11 17 6.4 20.9 0.00 0.03 0.00 90 1007.8
20260505181900 11 28 14.5 22.5 0.00 0.03 0.00 90 1007.8
20260505180858 11 14 11.3 19.3 0.00 0.03 0.00 89 1007.8
20260505175858 11 0 8.0 20.9 0.00 0.05 0.00 89 1008.0
20260505174859 11 42 9.7 20.9 0.00 0.05 0.00 89 1007.9
20260505173859 11 51 11.3 25.7 0.00 0.05 0.00 89 1008.1
20260505172900 11 21 8.0 22.5 0.00 0.10 0.00 90 1008.0
20260505172348 11 13 16.1 20.9 0.00 0.15 0.00 90 1007.9
20260505171337 11 28 12.9 22.5 0.00 0.15 0.00 90 1007.9
20260505165858 11 0 12.9 19.3 0.00 0.15 0.00 89 1008.0
20260505165336 11 8 12.9 20.9 0.00 0.15 0.00 90 1008.1
20260505163856 11 6 12.9 20.9 0.00 0.15 0.00 90 1008.1
20260505162857 11 0 14.5 22.5 0.00 0.18 0.00 90 1008.0
20260505161856 11 0 9.7 24.1 0.00 0.18 0.00 90 1007.9
20260505160855 11 30 14.5 22.5 0.00 0.18 0.00 90 1008.0
20260505153337 11 0 11.3 20.9 0.00 0.18 0.00 89 1008.3
20260505151855 11 39 11.3 20.9 0.00 0.18 0.00 89 1008.4
20260505150857 11 336 11.3 20.9 0.00 0.18 0.00 89 1008.4
20260505124853 11 24 9.7 19.3 0.00 0.18 0.00 89 1009.1
20260505123850 11 10 11.3 20.9 0.00 0.18 0.00 89 1009.1
20260505122851 11 6 14.5 20.9 0.00 0.18 0.00 88 1009.2
20260505121850 11 21 12.9 22.5 0.00 0.18 0.00 88 1009.2
20260505120850 11 35 12.9 22.5 0.00 0.18 0.00 88 1009.2
20260505115853 12 0 11.3 20.9 0.00 0.18 0.00 88 1009.4
20260505114851 12 34 9.7 25.7 0.00 0.18 0.00 88 1009.4
20260505113849 12 37 11.3 22.5 0.00 0.18 0.00 88 1009.5
20260505112850 12 20 14.5 24.1 0.00 0.18 0.00 89 1009.4
20260505111849 12 23 8.0 22.5 0.00 0.18 0.00 89 1009.5
20260505110851 12 0 9.7 19.3 0.00 0.18 0.00 89 1009.5
20260505101848 11 0 9.7 24.1 0.00 0.18 0.00 90 1009.7
20260505100848 11 23 8.0 22.5 0.00 0.18 0.00 91 1009.7
20260505095845 11 358 12.9 24.1 0.00 0.18 0.00 91 1009.7
20260505094849 11 0 14.5 24.1 0.00 0.18 0.00 92 1009.7
20260505093846 11 21 11.3 19.3 0.00 0.18 0.00 93 1009.7
20260505092847 11 0 11.3 19.3 0.00 0.18 0.00 93 1009.8
20260505091846 11 28 8.0 19.3 0.00 0.18 0.00 93 1009.8
20260505090846 11 0 9.7 19.3 0.00 0.18 0.00 94 1009.9
20260505085845 11 31 9.7 19.3 0.00 0.18 0.00 94 1009.7
20260505084845 11 31 11.3 22.5 0.00 0.18 0.00 94 1009.8
20260505083848 11 329 8.0 17.7 0.00 0.18 0.00 94 1009.8
20260505082847 11 347 9.7 16.1 0.00 0.18 0.00 94 1009.7
20260505081847 11 18 4.8 19.3 0.00 0.18 0.00 94 1009.7
20260505080850 11 0 12.9 19.3 0.00 0.18 0.00 95 1009.6
20260505075848 11 0 9.7 17.7 0.00 0.18 0.00 95 1009.7
20260505074848 12 357 6.4 17.7 0.00 0.18 0.00 95 1009.7
20260505073847 12 28 12.9 19.3 0.00 0.18 0.00 95 1009.7
20260505073326 12 0 9.7 16.1 0.00 0.18 0.00 95 1009.7
20260505071845 12 11 6.4 16.1 0.00 0.18 0.00 95 1009.6
20260505070846 12 27 9.7 19.3 0.00 0.18 0.00 95 1009.5
20260505065848 12 0 11.3 19.3 0.00 0.18 0.00 95 1009.6
20260505064845 12 17 8.0 17.7 0.00 0.18 0.00 96 1009.6
20260505063844 12 18 9.7 17.7 0.00 0.18 0.00 96 1009.7
20260505062844 12 13 11.3 16.1 0.00 0.18 0.00 96 1009.9
20260505062327 12 18 8.0 16.1 0.00 0.18 0.00 96 1009.8
20260505060844 12 32 9.7 17.7 0.00 0.18 0.00 96 1009.9
20260505055851 12 27 9.7 17.7 0.00 0.18 0.00 96 1009.8
20260505054842 13 344 4.8 9.7 0.00 0.18 0.00 96 1009.7
20260505053842 13 51 3.2 4.8 0.00 0.18 0.00 96 1009.7
20260505052843 13 45 3.2 6.4 0.00 0.18 0.00 96 1009.8
20260505052326 13 34 3.2 6.4 0.00 0.18 0.00 96 1009.7
20260505051319 13 56 0.0 3.2 0.00 0.18 0.00 96 1009.5
20260505050321 13 56 3.2 4.8 0.00 0.18 0.00 96 1009.5